Theta_e
331 336 342 348 351 352 352 353 355 354 356 351 347 351 354 356 354 354 352 352 352 351 350 349 349 349 349 348 348 348 346 347 348 343 342 347 349 348 349 348 346 344 345 345 345 344 344 344 344 344 343 343 343 343 343 342 342 341 340 340 340 340 341 342 342 343 341 340 340 339 341 341 343 346 346 344 342 342 342 341 342 343 343 343 342 343 344 344 344 344 343 342 343 344 344 344 344
340 346 349 351 352 353 353 353 354 353 351 347 347 351 354 356 354 354 353 354 353 350 350 350 350 350 348 348 346 347 348 348 350 349 348 348 349 348 348 349 348 346 347 346 346 345 344 343 343 344 343 343 342 342 343 342 342 341 340 340 341 341 343 343 342 341 339 338 339 340 341 341 343 345 347 346 344 343 342 341 342 343 343 343 343 343 343 343 344 343 343 343 343 345 345 344 344
348 350 350 352 353 352 354 353 352 352 349 345 348 353 355 355 354 355 354 353 351 350 350 350 350 349 348 347 346 346 348 348 347 348 347 348 349 348 349 350 349 349 349 348 347 346 344 343 343 343 342 341 341 341 341 342 341 340 340 341 342 342 343 343 342 341 341 341 340 340 340 341 343 344 346 346 344 344 343 343 343 343 343 342 343 343 343 343 343 343 343 343 343 344 344 343 343
349 349 351 351 352 352 354 354 355 354 348 345 348 355 355 354 354 355 354 351 350 349 350 351 350 350 349 347 346 347 348 347 346 346 347 348 348 348 351 350 349 351 351 350 348 346 345 343 342 342 341 340 340 339 337 337 336 337 338 340 342 342 343 343 342 343 342 341 339 338 339 340 341 342 343 345 345 343 342 343 343 343 343 342 343 343 343 343 343 343 343 343 342 343 343 341 341
348 350 351 351 353 353 354 356 358 354 348 347 350 356 354 353 355 353 352 350 349 350 350 351 351 351 350 348 347 347 346 345 343 344 347 347 348 349 350 349 347 349 351 351 347 345 344 343 342 341 340 339 338 337 335 333 333 334 336 337 340 342 343 343 343 344 343 342 340 340 340 340 341 341 343 345 344 343 342 343 343 343 343 342 342 343 344 343 343 343 343 342 342 344 343 342 342
349 350 351 351 354 353 354 354 353 352 353 355 354 355 354 353 354 352 351 351 350 350 349 350 350 350 351 350 348 346 343 342 343 345 348 348 348 349 349 348 347 349 350 347 345 345 344 342 341 340 339 338 337 338 337 337 338 338 338 339 340 342 343 343 343 344 344 343 342 341 340 340 341 341 343 344 343 342 342 342 343 344 344 343 342 342 344 343 342 342 343 342 342 343 343 343 343
349 351 352 351 353 353 355 354 352 353 355 357 355 354 354 354 353 351 351 352 352 351 349 349 349 349 350 350 348 345 343 343 346 347 347 348 348 349 348 347 347 351 351 347 345 345 343 342 342 340 339 338 338 339 339 340 341 342 343 343 342 342 342 343 342 343 343 343 342 342 341 340 341 341 342 343 343 342 342 341 341 343 343 344 343 343 344 344 343 343 343 342 341 340 341 342 341
350 352 352 352 355 355 355 356 356 357 357 356 355 354 354 353 353 352 352 353 352 351 349 349 349 350 350 349 346 344 343 345 348 348 348 349 348 348 348 347 346 348 350 347 345 344 342 342 343 341 341 340 338 338 339 342 343 343 343 343 343 342 342 342 342 342 342 342 342 341 341 341 340 341 342 344 344 344 343 342 342 342 343 344 344 343 344 344 343 343 341 341 341 339 338 340 340
351 352 353 353 357 356 353 356 356 357 358 356 357 356 355 353 353 354 352 353 352 350 349 349 350 351 351 349 347 345 346 347 348 348 348 348 348 348 348 346 346 348 348 347 346 344 342 343 343 341 341 339 338 339 341 343 343 343 343 343 343 342 342 342 342 341 342 342 342 341 341 342 342 341 342 343 343 344 342 342 342 342 343 343 343 343 342 343 342 342 340 338 337 336 335 337 339
352 352 354 355 356 352 351 355 355 356 359 356 356 357 355 354 354 355 353 353 352 350 349 350 350 352 351 349 349 347 347 348 347 348 348 348 349 348 347 346 347 350 350 348 346 344 342 342 342 340 340 338 339 342 342 342 343 343 343 343 343 342 342 342 341 341 342 342 342 341 341 342 343 341 341 342 342 343 342 342 342 342 342 342 343 342 341 341 341 340 340 336 334 334 334 336 338
353 353 354 357 355 347 348 355 356 357 359 356 355 357 356 355 355 355 354 354 352 351 350 350 350 351 353 352 350 348 348 347 347 348 348 349 350 349 348 347 348 350 351 350 348 344 343 342 340 338 339 340 341 342 342 342 343 343 343 342 342 342 342 342 341 342 343 343 342 341 342 343 343 341 341 341 341 342 342 342 342 341 341 342 341 340 340 340 339 339 338 337 336 335 335 337 338
353 354 356 358 355 349 351 355 356 358 358 355 355 356 355 355 355 354 354 354 352 351 350 351 350 350 351 353 351 348 347 346 346 347 348 349 349 350 349 347 347 349 351 351 348 345 343 341 340 339 340 342 342 342 342 343 343 343 343 342 341 341 341 342 341 342 343 343 342 342 343 344 344 342 340 341 341 340 342 343 342 340 340 342 341 339 339 339 339 339 338 338 336 334 333 334 336
353 355 358 358 355 355 356 355 355 357 356 355 355 355 355 355 355 355 355 354 352 352 350 349 349 349 350 352 350 347 345 346 346 346 346 348 349 350 350 348 346 347 351 351 346 344 343 341 340 340 341 342 342 343 342 342 342 343 344 343 341 340 340 342 342 343 343 343 342 342 344 344 343 342 341 341 341 340 341 342 341 340 340 341 341 340 339 339 339 339 338 336 334 332 331 330 330
353 356 358 358 357 357 356 354 355 355 354 355 356 355 355 355 354 354 353 353 352 351 349 348 348 350 350 351 349 347 346 345 345 344 346 347 349 350 350 349 347 346 349 350 345 342 343 341 339 341 342 342 343 343 341 341 342 343 343 342 341 341 342 343 344 344 343 343 342 343 343 343 342 343 342 341 341 340 341 341 340 339 339 340 341 341 341 340 339 339 338 336 334 333 333 330 330
353 355 358 359 358 357 354 355 355 353 353 354 356 356 356 355 353 354 353 352 353 351 349 348 348 349 349 348 349 349 347 345 343 343 346 348 349 351 350 349 347 346 347 348 346 343 343 342 340 341 343 343 342 343 341 342 343 342 343 342 342 342 343 344 344 344 344 342 342 343 343 343 343 343 342 342 341 341 341 341 340 338 338 339 340 341 341 340 339 338 337 336 335 336 334 333 333
354 355 357 358 356 353 353 357 356 352 353 353 356 357 356 355 355 355 354 354 353 351 350 349 348 347 347 347 349 349 347 344 342 344 347 349 350 350 350 350 348 347 346 347 346 346 345 343 341 340 342 343 342 343 342 342 343 342 343 342 342 343 343 343 343 344 343 341 341 343 343 342 343 341 341 342 341 341 340 340 340 339 337 338 340 341 341 340 339 339 338 338 337 336 334 334 335
355 354 357 358 355 351 353 357 356 353 353 354 356 357 355 355 357 357 354 353 352 351 350 348 347 346 345 347 349 349 346 344 343 345 348 349 350 350 350 350 349 349 348 347 346 348 348 345 343 341 342 344 343 343 342 342 343 343 343 343 343 344 344 343 343 344 342 340 342 344 344 343 341 339 340 341 341 340 339 339 339 339 338 339 340 341 341 341 340 340 340 340 339 337 334 332 333
355 357 357 355 354 354 355 355 355 354 353 355 357 356 354 355 358 357 354 354 353 351 350 347 347 345 346 348 349 348 345 343 344 346 348 349 349 349 349 349 349 350 349 348 348 349 348 348 346 344 344 344 344 343 342 342 343 343 344 344 344 344 345 344 343 343 341 341 343 344 343 343 341 339 340 340 339 339 338 338 339 338 338 340 341 341 341 341 341 341 341 340 339 338 335 333 333
354 356 357 355 355 356 356 355 355 356 355 356 358 357 356 356 356 355 355 355 353 351 348 348 348 347 348 349 348 347 343 343 344 346 348 348 348 348 349 348 348 349 348 348 350 349 348 348 349 348 345 344 345 343 342 342 341 343 343 343 344 344 345 344 342 342 341 342 343 343 343 343 340 338 340 340 338 338 338 339 339 338 338 340 341 341 341 341 341 340 340 339 339 339 338 339 339
354 356 360 360 357 356 357 356 357 357 356 356 357 357 357 356 355 356 355 353 353 350 348 349 350 348 349 349 347 345 342 342 344 347 347 347 348 348 348 348 349 349 347 348 351 350 349 349 349 349 348 346 346 344 342 342 342 343 343 345 346 344 345 344 340 340 341 342 344 343 342 342 340 338 339 339 338 338 338 338 338 337 339 341 341 341 341 340 340 340 340 341 342 342 343 344 345
354 355 359 360 356 355 357 357 356 355 356 355 355 355 356 355 353 354 354 351 351 349 348 349 350 349 348 347 345 343 341 342 346 347 347 347 347 347 347 348 348 348 347 349 351 350 350 350 348 349 349 349 348 346 342 342 343 345 346 348 348 347 348 346 342 340 340 341 343 342 342 343 341 338 338 338 339 339 339 338 338 338 340 341 341 342 342 340 340 341 342 343 344 345 345 345 346
356 356 356 356 355 356 357 357 356 357 357 355 355 354 355 356 352 351 350 350 351 348 346 348 349 349 347 346 344 342 341 343 346 346 346 346 346 346 346 347 348 347 348 350 351 350 350 350 348 349 350 350 349 347 344 344 345 348 349 350 350 349 346 345 345 345 346 345 344 342 342 342 341 339 339 338 339 340 339 339 339 340 341 341 341 342 342 341 342 343 343 344 345 345 346 348 348
357 357 356 356 357 357 358 357 356 358 358 355 354 354 355 355 351 350 349 349 348 346 346 347 348 348 346 345 342 341 342 344 344 344 345 345 345 345 345 346 347 347 348 350 351 351 351 350 350 349 349 350 348 347 348 348 348 349 350 350 351 348 345 344 345 347 349 349 346 345 343 342 340 339 338 338 338 338 339 340 340 340 341 340 340 342 343 343 345 344 344 345 346 346 346 347 346
356 357 356 357 358 358 358 357 356 358 358 356 355 355 356 352 350 353 351 348 347 346 346 347 348 347 345 343 341 341 343 344 344 344 345 344 345 344 344 346 347 347 348 349 350 350 350 350 351 349 348 350 350 349 350 349 349 349 349 350 351 349 348 345 343 347 350 349 348 347 345 343 339 338 337 338 340 339 341 341 340 339 340 341 341 344 345 345 345 345 346 348 348 348 347 346 345
355 355 356 357 358 358 356 357 357 357 358 357 355 356 356 351 353 355 351 347 347 346 347 347 347 346 344 342 341 342 343 343 343 344 345 345 345 344 345 346 347 347 347 348 349 349 350 350 351 350 350 351 351 350 349 349 350 349 349 350 350 350 349 343 343 349 350 350 350 349 348 346 343 341 340 340 340 340 341 342 342 341 342 342 343 345 346 347 346 346 348 350 349 348 347 345 345
354 355 356 357 357 357 356 357 356 357 359 358 356 357 355 353 355 355 350 347 347 347 347 346 345 344 343 341 342 343 343 343 342 343 344 344 345 344 345 345 346 346 346 347 348 349 350 349 350 351 351 350 351 350 349 349 349 350 350 350 351 351 349 346 347 350 351 351 350 349 350 349 348 347 345 344 345 344 344 346 346 346 346 346 346 346 347 349 349 349 350 350 349 346 345 345 345
354 355 356 356 356 357 357 358 358 357 359 359 356 355 355 355 355 353 350 347 347 347 346 345 344 344 343 342 343 342 342 342 343 343 344 345 345 345 344 344 345 346 346 347 348 349 349 349 349 351 349 349 351 351 350 350 350 350 350 351 351 349 349 350 350 350 350 348 345 345 349 351 350 349 348 346 347 348 348 348 348 348 349 348 348 349 349 350 350 351 351 350 349 346 345 345 344
354 355 355 355 355 358 356 356 356 356 356 356 357 356 356 356 355 353 349 347 347 347 346 344 343 343 343 344 343 342 342 342 343 343 344 344 344 345 344 344 345 345 346 347 348 348 349 348 349 351 348 347 351 351 351 351 350 350 350 351 350 346 348 350 350 350 348 343 341 342 346 348 348 347 349 349 349 350 350 349 349 349 349 349 349 350 350 350 350 348 348 349 349 347 345 346 345
353 355 357 355 356 357 355 355 355 356 355 353 356 356 355 355 355 353 348 347 348 347 346 344 343 344 344 344 343 342 342 342 343 343 344 344 344 344 344 344 345 345 346 347 348 348 349 348 349 351 347 345 350 351 350 351 351 351 351 350 346 345 348 349 349 348 344 341 341 341 342 343 342 342 344 349 350 349 350 350 349 349 350 349 348 348 350 351 349 348 347 348 349 348 346 346 346
354 356 357 356 358 358 357 356 356 356 355 354 356 353 352 354 355 353 347 347 348 347 346 344 344 344 344 344 343 342 342 342 343 343 344 344 344 344 344 344 345 346 347 346 347 348 349 348 349 351 348 347 351 351 350 351 351 351 351 348 345 347 349 349 348 346 343 342 342 342 341 340 340 339 340 347 350 349 349 349 349 349 348 345 345 347 350 350 349 349 349 349 349 348 347 346 346
352 353 355 354 355 356 356 356 356 357 355 356 355 351 352 355 355 352 347 346 347 346 346 345 344 344 344 343 342 342 342 342 343 343 343 344 344 344 344 345 346 348 348 346 348 349 348 348 349 350 350 350 349 349 351 351 351 351 350 348 347 349 349 348 347 346 345 344 341 342 342 341 340 340 339 345 350 349 348 350 349 347 346 347 348 349 350 349 350 350 350 350 349 349 347 347 347
350 352 351 350 349 352 357 357 358 357 355 358 356 351 354 355 354 353 349 346 347 345 345 345 344 345 344 343 342 343 342 342 343 343 343 343 344 345 345 345 348 348 348 347 348 349 348 348 350 350 350 351 348 349 350 348 349 350 349 348 348 349 349 347 347 347 348 346 344 341 342 341 341 341 341 344 350 350 348 350 348 345 347 350 349 349 349 349 349 348 349 350 349 349 349 348 348
349 352 348 345 345 350 354 356 357 356 356 357 356 354 355 355 354 354 350 347 346 345 345 345 344 345 344 343 342 343 343 343 344 343 343 344 344 345 346 347 349 348 348 349 348 349 348 348 350 350 351 350 347 347 346 345 346 347 348 349 349 349 349 348 347 348 348 348 347 343 341 342 341 341 341 344 349 350 348 349 348 348 349 349 349 350 349 349 348 347 347 349 349 349 348 349 349
345 350 349 347 349 349 350 353 355 355 356 355 355 356 355 352 353 356 352 349 348 347 345 345 345 345 344 343 343 343 343 343 344 344 344 344 345 346 347 348 349 350 350 349 349 350 349 348 350 351 352 350 345 343 344 346 345 345 348 349 348 349 349 348 348 348 348 349 349 344 340 342 340 341 341 343 349 350 350 350 349 350 347 346 349 350 348 349 351 349 347 346 348 349 349 349 349
341 345 347 347 350 348 348 353 354 354 354 354 355 355 354 352 353 356 355 352 352 350 345 345 345 345 345 343 343 344 344 344 344 344 345 345 346 347 347 348 349 350 351 350 350 351 350 350 352 351 349 347 345 343 343 345 344 345 350 349 348 349 350 349 348 348 348 350 349 341 340 343 340 340 341 343 349 351 351 350 348 346 345 346 349 349 348 349 350 352 351 348 347 348 349 349 347
341 346 347 346 348 349 351 352 353 355 354 354 356 354 355 354 353 355 355 354 354 351 346 345 345 345 345 343 343 345 344 345 345 345 345 345 346 347 348 349 350 351 352 352 352 352 351 352 352 350 348 347 344 341 343 345 345 347 350 348 348 349 350 350 349 349 349 350 349 343 343 345 341 341 341 341 348 352 352 351 347 343 345 348 350 350 350 350 349 352 352 351 351 351 350 347 345
341 349 346 346 349 348 352 354 353 354 352 352 355 355 357 355 353 354 355 356 354 351 348 346 345 345 345 343 344 345 344 345 346 345 345 345 347 348 349 350 351 352 353 353 353 353 353 352 352 350 350 350 346 343 346 348 348 349 349 349 349 350 349 349 349 349 350 351 349 346 346 344 341 342 342 341 343 349 353 351 347 345 346 347 350 351 350 349 349 351 352 351 353 353 349 345 344
336 345 345 347 348 348 353 354 352 352 352 351 350 355 357 356 354 354 355 355 354 352 350 346 346 345 344 344 344 345 346 346 346 346 345 346 347 349 350 351 351 354 354 353 354 353 353 353 352 351 351 350 348 347 347 348 349 349 348 348 349 349 349 348 349 349 350 350 346 346 348 345 342 342 343 342 341 345 349 349 345 346 346 346 348 349 348 347 349 353 354 352 353 350 347 345 344
334 340 345 344 346 349 352 353 352 351 352 351 351 355 356 355 354 354 354 354 353 353 351 347 347 346 344 344 344 345 347 347 346 347 346 347 348 349 350 351 352 354 354 354 355 354 354 354 351 350 350 351 351 348 347 349 349 349 349 349 349 349 348 348 350 349 351 350 345 345 347 344 342 342 342 343 343 344 346 347 346 344 344 344 345 346 346 347 351 355 354 353 352 347 344 345 345
334 337 338 340 347 349 347 351 354 351 351 353 353 354 354 355 355 353 353 354 354 354 353 349 346 346 345 344 345 347 347 348 347 347 347 347 349 349 350 352 353 353 353 354 355 354 354 354 349 348 350 352 351 347 347 348 347 348 350 351 350 350 349 350 351 350 351 350 347 347 346 342 345 347 346 347 348 345 345 350 349 342 342 344 343 344 346 349 352 353 352 352 352 348 344 346 346
332 337 335 341 351 349 345 352 354 351 351 354 354 351 352 356 356 356 354 354 356 355 354 352 348 347 347 345 345 347 347 348 348 348 347 347 348 349 349 351 352 353 353 354 355 354 354 354 348 346 349 351 351 346 345 346 343 344 348 350 351 351 351 352 351 351 351 350 349 350 346 344 350 351 350 352 350 344 344 350 350 344 342 343 344 346 349 352 352 351 351 352 354 352 346 345 347
329 334 334 337 350 349 346 353 354 352 349 352 353 346 348 356 355 355 356 354 356 356 354 353 350 347 347 347 347 347 346 347 348 347 346 346 347 348 349 350 351 353 353 353 354 354 355 353 348 346 347 349 350 346 344 345 343 343 344 346 350 350 351 352 353 352 351 351 350 349 347 347 351 352 352 355 352 345 343 345 346 346 345 345 347 348 349 351 351 352 353 354 354 352 348 346 345
325 330 335 332 341 346 345 349 351 349 347 352 351 344 346 355 355 354 356 355 355 355 354 353 351 348 347 347 347 346 346 346 347 346 345 346 346 347 349 349 349 352 353 353 353 353 355 353 348 347 346 348 349 345 343 345 344 344 345 347 350 349 351 352 353 353 351 351 350 349 350 350 352 353 353 355 353 346 342 343 345 348 349 348 346 346 349 351 351 353 354 353 352 350 349 349 346
326 329 334 332 334 344 347 349 348 347 347 351 353 346 345 350 354 355 355 356 356 354 353 354 353 350 347 348 348 346 345 346 346 345 344 345 346 347 348 349 349 350 351 352 353 353 354 352 347 346 346 347 348 345 343 345 344 344 347 351 351 349 352 352 351 352 351 352 352 351 352 352 352 352 351 352 351 346 342 343 346 350 353 352 347 348 351 352 350 350 349 348 348 348 349 351 349
330 330 331 331 333 340 346 349 345 343 342 343 347 348 344 344 350 356 358 357 358 355 353 353 353 351 348 348 348 346 345 345 345 344 344 345 345 346 347 349 349 348 349 350 352 354 354 351 345 345 346 346 347 345 344 345 345 344 348 353 353 350 352 350 349 351 352 353 354 352 353 352 350 349 348 348 348 346 343 343 344 347 351 351 350 352 352 349 347 346 346 347 347 349 350 350 350
332 331 329 330 334 338 340 343 342 341 338 336 340 346 344 343 348 355 356 355 356 356 353 352 352 351 349 348 347 345 345 345 344 344 345 345 345 346 346 348 348 347 349 349 351 354 355 351 345 345 347 347 347 346 345 346 345 343 348 353 353 353 353 351 351 351 350 351 353 352 351 351 351 347 346 346 345 345 344 345 347 346 350 352 352 355 353 348 346 346 346 346 346 347 350 350 351
332 331 329 330 334 338 338 338 341 340 336 334 337 342 342 342 346 352 354 353 354 355 353 353 353 352 350 349 347 345 344 344 343 343 344 345 345 345 346 347 347 347 349 350 350 353 356 353 347 345 348 348 347 347 345 346 346 345 347 350 351 353 352 351 351 349 347 347 350 351 348 349 353 351 349 347 345 347 345 346 351 351 352 352 349 351 354 351 350 351 347 344 345 345 348 351 352
330 330 329 329 330 333 334 334 336 334 331 332 338 343 342 339 343 351 354 352 351 354 353 351 353 354 351 349 347 345 344 343 343 343 343 345 345 345 346 347 347 347 349 350 349 351 355 355 348 343 346 348 346 347 346 346 348 347 347 347 349 351 351 352 351 348 347 346 349 352 349 348 352 353 352 350 349 351 347 345 352 354 352 352 350 348 353 354 355 355 349 344 347 345 345 348 351
328 329 327 325 326 330 332 331 332 330 328 330 336 343 343 341 344 349 352 350 349 351 352 352 353 353 351 350 348 346 345 343 343 343 343 344 345 345 346 346 347 348 350 351 349 350 354 356 350 342 343 347 347 347 347 346 348 348 347 347 347 347 348 351 352 351 350 348 351 354 350 347 349 351 352 352 352 353 349 345 349 351 348 350 350 347 349 351 354 357 350 344 347 346 345 346 348
325 326 325 323 325 330 332 330 330 329 327 330 337 338 336 340 347 350 350 350 350 351 352 352 353 352 350 349 348 346 345 344 344 344 344 344 345 345 345 346 348 348 350 350 349 349 351 354 352 346 342 344 346 347 346 345 347 348 348 347 347 346 347 348 350 354 353 351 353 354 353 352 351 351 353 353 353 353 352 349 346 346 344 343 345 344 344 344 347 354 352 348 352 351 344 345 349
325 327 328 325 325 328 330 330 329 329 328 329 336 335 330 337 347 351 350 349 351 351 352 353 353 352 350 349 347 346 346 344 344 344 344 344 344 345 345 347 348 349 350 350 349 349 350 352 354 350 342 341 346 347 346 345 346 347 348 347 348 349 350 351 352 355 355 354 354 354 354 355 354 354 355 354 353 352 353 352 347 345 344 341 342 341 343 343 341 347 350 349 354 354 345 343 350
324 327 327 325 327 329 328 328 328 329 329 332 336 335 337 345 350 351 351 348 351 352 352 355 354 352 351 349 347 346 346 345 344 344 344 344 344 345 346 347 348 349 349 349 349 349 350 352 354 351 344 340 344 346 346 346 346 346 346 347 349 350 351 353 353 352 353 354 355 355 354 354 355 355 355 353 351 350 351 350 347 346 343 341 343 341 342 346 342 342 346 346 350 356 353 345 347
323 323 323 326 332 331 325 325 327 327 328 333 336 335 338 346 348 350 350 349 350 352 352 354 353 352 351 349 346 347 347 346 346 346 345 344 345 345 346 347 349 349 348 348 349 349 351 352 353 353 348 344 344 344 345 347 347 345 344 345 350 351 350 353 354 352 353 354 354 355 354 354 355 355 354 352 349 348 346 346 347 349 345 341 343 342 341 344 343 342 345 343 346 356 357 349 348
321 320 323 328 330 330 327 326 328 328 327 329 332 332 333 337 342 347 349 350 351 349 349 351 353 353 352 350 348 347 347 346 346 346 346 345 345 345 347 347 348 348 347 347 348 348 350 351 351 352 350 349 347 345 347 349 349 348 347 344 348 353 354 355 355 354 354 354 353 353 354 355 354 354 354 354 352 348 343 341 344 349 347 342 343 344 342 341 341 345 348 345 345 350 351 347 346
323 322 325 326 323 323 325 326 327 328 327 327 328 328 329 332 339 344 347 350 350 349 348 349 352 353 352 351 348 347 347 346 346 346 346 345 345 345 346 346 347 347 346 346 346 347 349 350 349 349 349 350 349 347 348 349 350 351 351 349 349 352 355 355 355 355 355 355 354 353 353 355 354 354 354 353 353 352 348 342 341 345 348 346 344 344 343 341 340 345 350 350 349 346 343 343 346
323 323 325 325 322 322 323 325 326 325 324 327 327 326 329 336 344 347 347 349 347 348 349 349 351 353 352 353 352 350 348 348 347 347 346 346 345 345 345 346 345 346 346 345 345 346 347 348 347 347 348 350 350 349 349 349 349 350 352 353 351 350 352 355 357 356 355 355 355 354 353 353 353 354 353 351 351 354 353 348 345 348 351 351 349 348 349 346 341 343 349 353 356 351 343 342 347
320 319 320 322 322 323 324 324 325 324 323 325 326 326 332 344 351 349 347 347 346 346 348 350 351 353 352 351 352 352 352 350 348 347 345 345 345 345 345 345 345 346 346 345 344 345 346 346 347 347 347 349 349 348 349 349 350 349 350 352 352 350 351 354 356 356 355 355 355 354 354 354 353 354 354 353 352 354 355 353 352 352 353 355 353 351 353 350 343 343 345 349 353 351 345 345 347
321 320 319 321 322 319 320 321 322 323 322 324 325 325 334 347 351 349 347 347 348 347 349 350 350 352 353 352 352 354 353 352 351 351 347 345 346 345 345 345 345 346 346 345 345 344 345 346 347 347 346 348 348 347 349 349 349 350 350 350 350 351 351 353 355 355 355 356 355 355 355 354 354 354 354 355 354 354 355 354 355 355 354 357 355 350 352 354 351 347 345 348 352 349 344 345 346
Wind_Speed
3 4 3 1 3 6 7 6 2 2 3 1 4 6 5 9 11 12 14 13 10 10 14 15 14 11 9 11 12 15 14 10 7 6 10 17 22 18 18 20 18 18 18 18 17 16 16 16 17 17 17 16 16 15 15 15 14 13 12 13 12 13 13 12 11 9 10 10 9 10 11 12 13 15 15 15 14 14 15 16 15 15 16 16 15 16 16 17 17 17 17 16 16 16 16 17 17
2 2 3 4 5 6 4 4 2 1 2 2 4 6 8 10 12 13 14 11 10 13 15 15 14 12 13 14 14 14 15 16 18 20 22 24 23 19 19 19 19 19 17 18 16 16 15 15 16 15 15 15 15 14 13 14 13 13 12 12 12 12 12 11 10 9 9 9 10 10 10 11 13 14 14 15 16 15 14 15 15 13 15 15 15 16 16 16 17 17 17 16 16 16 16 17 17
4 4 5 5 6 7 4 4 3 1 2 3 4 7 9 10 13 13 14 15 16 18 16 16 15 12 13 12 12 13 13 18 24 28 26 24 22 20 19 19 20 19 18 17 15 16 15 15 15 14 14 13 13 12 12 12 12 12 12 12 11 12 11 9 8 8 9 9 10 10 10 9 11 13 13 15 16 15 15 15 15 13 14 14 15 16 16 16 16 18 17 15 16 16 16 17 17
6 4 4 4 5 6 5 3 1 1 3 5 4 6 9 12 14 14 16 19 19 18 16 16 14 11 12 13 14 13 15 19 22 26 24 21 21 21 20 19 19 19 18 16 15 15 15 14 14 14 13 12 12 11 10 10 11 11 11 11 11 11 10 8 8 8 8 8 8 9 9 9 10 11 12 14 15 15 15 15 14 13 13 14 15 15 16 16 17 17 17 16 16 17 16 17 17
5 4 4 5 4 3 3 2 1 1 2 5 6 6 11 14 15 16 18 20 18 16 15 15 13 12 14 15 13 13 16 20 21 22 22 21 21 21 20 18 18 19 17 15 15 15 15 14 14 14 12 11 10 10 10 10 11 11 11 11 10 10 9 8 8 9 8 8 8 8 9 9 10 11 11 12 14 14 14 14 14 14 13 14 15 15 16 16 16 16 16 16 16 16 16 16 17
3 4 4 5 4 2 2 1 1 1 2 2 7 10 13 15 16 19 20 19 17 14 15 14 15 16 16 16 15 14 17 20 20 19 22 24 22 20 19 16 17 19 15 14 16 15 14 14 14 14 12 11 10 10 10 11 12 12 12 11 10 9 8 7 7 8 8 8 9 9 8 8 9 10 11 11 12 13 13 14 14 14 14 14 14 14 15 15 15 15 16 16 15 15 15 15 16
5 4 4 5 4 4 3 1 2 2 3 2 9 13 13 15 19 21 19 17 15 12 14 15 16 16 13 14 16 15 17 18 19 20 23 24 22 20 18 16 17 19 16 15 16 16 14 14 14 13 12 10 10 10 10 11 12 11 11 10 10 9 8 7 6 7 8 8 9 9 8 8 9 9 10 11 11 11 12 13 13 13 13 13 13 13 14 15 15 15 15 15 15 14 14 15 15
6 4 3 4 2 3 2 2 3 4 5 7 12 14 15 18 20 19 16 14 12 12 15 16 16 14 13 15 16 16 17 18 20 23 25 24 21 20 17 15 16 19 17 16 17 16 15 14 14 13 12 10 9 9 10 11 11 10 9 9 9 8 8 7 6 5 6 8 8 8 8 8 9 9 10 11 11 10 11 12 12 11 11 12 12 12 13 15 15 15 15 15 14 14 14 14 15
5 1 2 3 2 3 2 1 4 8 7 10 14 15 18 19 20 17 15 13 12 15 16 15 14 14 16 19 18 17 18 19 24 25 24 22 20 18 16 14 15 18 16 16 16 16 15 14 14 13 11 10 9 10 10 10 10 9 8 8 8 8 7 6 6 5 6 7 8 8 9 10 9 10 10 10 11 10 10 11 12 11 11 11 12 12 12 14 15 15 14 15 15 14 14 14 14
4 3 3 2 3 4 3 1 4 9 8 12 14 15 17 18 18 16 15 14 14 16 15 14 14 16 18 19 17 16 19 22 25 24 23 21 19 18 16 14 15 17 15 16 16 15 15 13 13 12 11 10 10 10 10 9 8 8 8 8 8 8 7 7 7 7 7 7 8 8 9 11 10 10 9 10 11 11 10 10 12 11 11 11 11 12 12 14 15 14 14 14 15 15 14 14 14
4 4 3 2 3 2 4 2 4 10 9 11 15 15 16 17 16 15 16 14 16 15 15 14 15 19 19 18 17 17 21 22 23 24 22 20 18 17 16 14 15 17 15 16 15 15 15 13 12 11 10 10 9 9 9 9 8 7 7 7 7 8 8 8 7 7 8 8 9 9 10 11 10 10 9 9 10 11 10 10 12 11 11 11 11 12 13 14 14 14 14 14 15 15 14 14 14
3 3 2 2 2 1 4 5 6 11 11 11 13 14 15 16 14 14 15 14 15 15 14 14 15 18 16 15 17 19 22 21 22 23 21 19 18 17 15 13 14 16 16 15 15 15 14 12 11 10 10 10 9 9 9 8 8 7 7 7 7 8 8 8 8 9 10 10 9 9 10 10 10 11 10 9 10 11 11 11 12 12 12 12 11 12 13 14 14 13 14 14 14 14 13 13 14
5 2 1 1 1 1 5 8 9 11 10 10 12 13 13 14 15 14 15 15 14 13 13 14 17 16 14 16 19 21 22 21 22 22 20 18 17 16 15 13 13 15 16 15 14 15 14 12 11 10 10 10 9 9 9 8 7 7 7 7 7 8 9 10 10 10 11 11 10 10 10 10 11 11 11 10 12 13 12 12 13 12 12 12 13 13 13 14 14 14 14 15 15 14 13 14 15
6 5 2 0 2 2 4 8 10 9 8 10 10 10 9 10 15 16 16 15 12 13 13 14 17 16 16 18 19 21 22 21 22 21 19 17 16 16 15 13 13 15 16 15 14 15 13 11 12 11 10 9 10 9 9 8 7 8 8 8 8 9 10 11 12 12 12 12 12 11 11 11 12 12 11 11 12 14 14 15 14 13 13 13 13 14 14 15 15 15 15 15 15 14 14 14 16
5 8 3 0 0 4 5 6 10 10 9 11 11 10 9 10 15 14 13 13 12 14 14 14 13 11 16 17 18 22 23 23 22 20 18 17 16 16 15 13 13 14 15 15 14 13 12 12 11 10 9 9 9 9 9 8 8 9 9 8 9 10 11 12 13 13 14 13 13 12 12 13 13 13 12 12 12 14 16 16 15 14 14 14 14 15 15 16 16 16 15 15 15 15 14 14 15
4 6 2 0 2 6 5 6 10 9 10 13 14 13 13 12 12 10 9 12 14 13 12 12 9 10 18 19 22 26 25 24 23 20 19 18 16 15 15 13 13 13 12 13 14 13 13 12 9 8 9 9 9 9 9 8 8 9 9 9 9 11 11 13 14 14 14 14 15 15 14 14 13 13 13 14 14 15 16 16 16 14 14 14 14 15 16 17 16 16 16 15 15 15 15 14 14
4 2 2 1 2 3 2 4 7 9 13 14 14 15 14 11 10 11 11 12 14 12 11 11 10 15 21 22 26 27 25 25 23 21 19 18 16 15 14 13 13 12 11 11 12 13 13 11 9 8 10 11 9 9 10 9 9 10 10 10 10 12 13 14 15 15 14 14 16 16 15 14 13 14 14 15 15 16 17 17 16 15 15 15 15 16 17 16 16 15 15 14 14 14 14 13 13
3 2 1 2 1 2 2 2 8 11 15 15 14 16 15 13 13 13 13 13 13 13 12 13 15 19 23 26 28 26 25 25 23 22 19 18 16 15 14 13 13 13 12 12 10 10 11 10 9 9 9 11 10 9 10 10 11 11 10 10 11 12 13 14 15 15 14 14 16 15 15 14 13 14 14 15 16 17 18 17 17 17 16 16 16 17 17 16 15 15 14 14 14 13 13 13 12
2 2 1 2 1 4 2 4 12 14 16 17 15 16 14 14 17 14 12 13 14 13 15 18 22 24 27 28 27 25 25 25 23 20 19 17 16 15 14 13 13 12 12 12 11 9 8 9 9 9 8 9 9 9 9 9 11 11 11 11 12 12 14 15 15 14 14 14 15 14 14 14 14 15 15 15 16 17 18 18 18 18 17 17 17 17 17 16 15 15 15 14 13 12 12 11 10
1 3 1 2 2 4 3 7 13 17 20 19 15 14 14 15 16 14 13 15 14 13 16 20 25 27 28 28 26 26 25 24 21 19 18 16 15 15 14 14 13 12 11 11 11 9 8 8 9 10 9 7 8 10 10 9 10 11 12 11 11 12 14 15 15 14 14 15 15 15 15 15 15 15 16 16 16 16 17 18 17 17 17 17 16 16 16 15 15 15 15 13 11 10 9 10 9
3 2 1 1 3 2 6 12 15 18 21 21 19 16 14 15 14 13 14 13 11 13 18 21 25 28 29 29 27 25 24 23 20 18 17 16 15 14 13 13 12 12 11 11 10 9 9 8 9 11 10 8 7 9 11 11 10 11 11 9 10 11 12 13 15 15 14 15 16 16 16 16 16 16 16 17 17 17 16 16 17 17 16 16 16 15 14 14 14 14 13 12 9 9 9 10 8
4 2 4 3 5 3 7 17 19 16 17 19 20 17 15 16 14 13 13 10 9 13 19 22 26 28 29 29 27 25 24 22 20 18 17 16 15 13 13 13 12 12 11 11 10 10 10 8 8 9 10 9 8 10 12 11 11 11 10 9 9 10 10 13 14 14 13 14 17 17 16 17 18 18 17 16 17 17 16 15 15 16 15 15 16 15 14 14 13 12 11 10 8 8 9 8 6
3 3 4 3 6 4 3 15 20 16 17 17 16 16 16 16 15 12 11 11 12 15 19 23 26 26 27 27 27 26 24 21 20 18 17 16 15 14 14 13 12 12 11 11 10 10 10 9 9 8 9 9 8 10 12 12 11 10 10 11 10 8 8 11 13 13 13 13 16 17 16 16 18 19 18 16 16 16 15 14 12 14 14 14 15 14 13 12 11 10 10 8 7 8 8 6 6
4 4 5 4 7 6 5 11 17 16 16 15 15 17 16 16 15 11 12 15 16 17 21 24 25 25 25 25 25 24 23 21 19 18 17 15 14 14 13 13 12 11 11 11 10 10 10 9 9 8 8 9 9 9 10 11 10 10 11 11 11 9 6 8 12 12 11 11 14 16 15 15 17 19 19 16 15 15 13 13 11 12 13 13 12 11 10 10 10 10 9 7 6 7 6 6 7
5 4 5 8 9 11 12 12 15 16 14 15 16 15 15 16 14 13 14 16 18 20 23 24 25 25 24 24 24 23 22 20 19 17 16 15 14 14 13 12 12 11 11 11 10 10 10 10 9 9 9 10 10 9 9 11 10 9 10 9 11 11 6 7 12 11 10 10 13 14 12 13 14 15 16 14 13 14 14 14 13 10 12 13 12 11 8 8 9 8 8 7 7 7 6 6 6
7 6 7 9 11 13 14 15 16 15 10 12 16 12 13 16 14 13 15 17 19 21 23 24 25 24 23 23 22 21 21 20 19 17 16 15 14 14 13 12 11 11 11 11 10 10 10 10 10 10 10 10 10 9 9 10 10 9 9 9 10 11 9 9 11 10 9 10 12 14 13 13 12 11 13 14 13 12 11 13 13 10 10 11 12 11 8 8 7 6 7 7 7 7 6 6 6
9 12 10 8 10 11 9 6 12 15 6 5 12 13 13 13 9 9 14 18 20 22 24 24 24 23 22 22 21 20 20 20 19 17 16 15 14 14 13 12 11 11 12 11 10 10 10 10 10 10 10 11 10 9 9 10 10 9 9 9 9 10 11 10 10 10 10 10 12 16 16 14 12 11 12 12 12 10 9 10 11 9 9 9 10 9 7 7 6 5 6 7 7 7 6 5 5
7 11 10 8 8 10 12 9 12 12 5 3 7 12 11 5 5 10 17 19 20 22 24 24 23 22 22 22 21 20 19 19 18 16 16 15 14 14 13 12 12 12 11 11 11 10 11 11 11 10 10 11 10 9 10 10 10 10 9 8 9 11 11 10 10 10 11 12 13 14 15 14 13 14 12 10 10 9 9 9 8 9 9 8 8 8 7 6 5 6 7 8 8 6 5 5 4
5 6 5 7 7 9 11 9 9 7 5 2 4 9 7 2 7 15 20 20 20 23 24 24 23 22 22 21 20 19 19 18 17 16 15 15 14 13 13 12 12 12 11 11 11 11 11 11 11 10 10 11 11 9 10 10 9 10 9 9 10 12 10 9 10 11 11 12 12 12 13 14 14 14 14 11 8 8 9 8 8 8 8 7 8 9 8 6 5 5 6 6 6 5 4 3 3
3 4 3 5 5 5 6 8 10 8 6 6 4 5 6 6 11 16 19 21 21 22 24 23 23 22 22 21 20 19 19 18 17 16 15 14 13 13 13 13 12 12 11 11 12 12 12 11 11 10 10 11 11 10 10 10 9 9 9 10 11 11 9 9 9 10 11 11 12 12 12 13 13 12 14 13 8 7 8 8 8 7 8 9 9 10 7 5 5 5 5 4 4 3 3 3 3
2 2 4 2 1 3 4 5 9 8 6 6 2 2 7 8 12 16 19 20 20 22 23 23 23 22 22 21 20 19 19 18 17 16 15 14 13 13 13 13 12 12 12 12 12 12 11 11 11 11 11 11 11 11 11 10 10 9 9 10 11 10 8 9 9 9 10 10 10 11 11 11 12 11 12 13 10 6 6 7 6 7 9 8 7 10 8 4 5 4 4 3 2 3 2 2 3
4 1 2 5 3 4 3 4 7 7 7 5 2 3 6 8 13 16 18 20 20 21 22 22 23 22 22 21 20 20 19 18 17 17 16 14 14 13 14 13 12 12 12 13 13 13 12 12 12 11 12 11 11 12 11 11 11 10 10 10 10 10 9 9 9 9 9 9 8 9 10 10 11 11 11 13 11 5 5 6 5 7 8 7 7 10 9 5 5 4 4 4 4 5 5 3 3
5 3 3 2 3 5 5 5 4 6 9 5 2 4 5 8 14 17 18 19 18 20 21 22 22 22 22 21 20 20 19 18 18 17 16 15 14 14 14 14 13 12 12 13 13 13 12 12 12 12 12 11 11 12 11 11 11 11 11 10 9 9 9 9 9 9 9 8 7 8 10 9 10 10 10 13 12 6 5 5 6 7 6 9 10 8 7 6 6 4 5 7 6 7 8 4 2
2 3 1 1 1 4 6 6 5 6 9 7 5 6 7 10 15 16 17 19 18 19 21 21 22 21 21 21 20 20 20 20 18 18 17 15 15 14 14 14 13 13 13 13 13 13 13 12 12 14 13 11 11 11 12 11 11 12 10 9 10 10 9 9 9 9 9 8 7 7 9 8 9 9 9 13 13 7 6 6 6 7 7 10 10 6 7 8 7 4 4 8 9 8 9 4 2
2 1 2 0 3 5 6 7 9 11 10 9 8 7 8 11 14 16 17 18 17 18 20 21 21 21 21 20 21 20 20 20 18 19 18 16 16 15 15 15 14 13 13 14 14 13 13 12 12 14 13 12 12 11 12 11 11 11 9 9 10 10 9 8 8 8 8 8 7 7 8 8 8 10 9 12 13 7 5 6 6 7 9 11 10 7 6 6 7 5 4 6 7 7 7 4 2
4 6 4 3 2 3 4 6 10 13 10 10 9 7 11 12 12 15 17 18 17 18 20 20 20 21 21 20 20 20 20 19 19 19 19 17 17 16 16 16 15 14 14 14 14 14 14 13 13 13 11 12 12 12 12 11 11 11 10 10 10 9 9 9 9 8 8 8 7 7 8 8 8 9 9 10 12 9 6 5 6 8 10 10 10 8 5 4 7 7 6 6 6 5 4 2 3
2 8 6 3 2 1 4 7 10 12 9 10 10 8 11 12 12 14 17 18 17 18 20 20 20 20 20 21 20 20 19 19 19 19 19 18 17 17 16 16 15 15 15 14 14 14 14 13 14 14 12 12 12 13 13 12 11 11 10 10 9 9 9 9 9 8 8 8 8 8 7 8 9 9 9 9 11 12 8 6 7 8 7 8 9 6 4 6 7 6 5 7 6 3 3 3 5
6 6 6 3 4 2 3 6 11 11 6 8 11 9 10 11 11 12 14 15 16 18 21 21 21 20 19 20 21 20 19 19 20 20 20 18 18 18 17 17 16 16 16 15 14 14 14 14 13 14 14 13 13 13 13 13 11 11 10 10 9 9 9 10 9 8 8 8 10 9 7 8 9 9 9 9 9 11 9 7 8 8 6 7 8 6 6 6 7 5 3 4 5 4 4 4 6
9 4 7 4 5 5 3 3 7 9 5 7 13 10 9 9 7 7 10 14 16 18 20 21 22 21 20 19 20 21 20 20 21 21 20 19 19 18 17 17 17 16 17 16 15 15 14 14 14 14 14 14 13 13 13 13 11 11 10 9 10 9 9 9 8 9 9 7 9 9 8 9 9 9 9 9 8 9 8 7 6 7 6 6 6 6 6 5 6 5 3 4 5 5 6 5 5
7 3 4 5 6 5 4 5 8 9 3 4 11 8 5 6 5 5 11 15 14 16 17 19 22 21 20 20 20 21 21 21 22 21 21 20 20 19 18 17 17 17 17 17 16 16 15 14 15 14 14 14 13 13 13 13 13 13 12 10 10 9 9 9 9 10 9 8 8 8 9 9 9 8 8 8 7 7 9 7 5 5 7 6 5 6 6 5 5 4 3 5 5 5 6 7 6
9 7 4 7 11 8 5 8 8 6 1 4 9 5 1 5 6 7 10 13 10 14 14 16 20 21 20 19 20 21 21 21 22 22 21 21 20 20 18 18 18 17 17 17 17 16 15 15 15 14 14 14 14 14 14 14 14 15 15 14 12 11 11 10 10 10 9 8 8 8 8 9 10 8 7 7 6 6 8 7 6 5 6 7 6 5 5 6 5 3 5 5 4 5 6 7 7
9 9 6 5 12 11 6 10 10 3 2 7 9 5 2 6 8 9 10 9 9 12 13 16 20 22 20 20 20 21 21 21 21 22 21 21 21 20 19 18 18 17 17 17 17 16 16 16 15 14 14 14 14 14 15 14 14 13 15 15 14 13 13 11 11 11 9 9 9 8 8 10 10 8 7 7 5 6 7 7 6 5 5 7 6 4 5 6 5 4 4 4 4 6 8 6 7
8 4 6 3 7 11 8 8 9 3 2 6 8 5 2 5 9 11 10 9 9 10 12 16 20 22 21 21 21 22 22 22 21 21 21 21 21 21 20 19 19 18 17 17 17 16 17 16 15 14 14 14 14 15 15 15 14 13 13 13 12 12 12 11 11 11 9 9 8 7 8 10 9 8 8 7 6 6 6 6 6 5 4 4 5 5 6 6 5 2 2 3 4 8 9 6 6
5 4 1 4 5 9 10 9 6 3 4 5 7 6 1 3 8 11 12 11 10 9 11 15 19 22 23 22 21 22 23 23 22 22 22 22 22 21 20 19 19 18 17 18 17 17 17 16 14 14 15 14 14 15 16 16 14 14 13 11 11 10 11 11 12 11 10 8 7 7 8 9 10 10 9 9 8 7 6 6 6 6 5 4 4 5 4 4 5 3 4 5 6 7 7 6 6
4 4 5 6 4 5 9 8 3 2 4 4 7 7 3 2 5 9 11 11 11 11 12 15 20 23 23 23 23 22 23 23 22 22 22 22 22 21 21 19 18 18 18 18 17 18 17 16 14 14 14 14 15 14 15 16 15 15 13 11 11 10 9 10 11 11 11 10 9 9 9 9 10 11 10 9 8 7 7 6 6 7 6 4 4 3 3 4 5 4 5 5 5 6 5 5 6
6 1 6 8 4 3 6 4 2 2 5 3 8 10 4 1 4 8 9 10 12 12 11 15 21 24 23 24 25 24 23 22 22 22 22 22 22 21 21 20 18 17 17 17 17 18 17 16 15 14 14 14 14 13 14 15 15 15 14 12 12 11 10 11 10 11 12 12 11 11 11 10 9 9 8 8 8 7 6 6 5 5 5 4 4 4 4 4 4 3 4 4 4 5 4 4 4
8 4 6 9 5 4 4 3 2 3 6 4 9 13 9 4 4 8 9 11 14 13 11 15 20 23 24 24 25 25 24 23 23 23 22 22 22 21 20 20 19 18 17 17 18 18 18 17 16 15 15 14 14 13 14 15 14 14 15 14 13 12 12 13 12 11 12 12 11 10 10 10 8 7 7 7 7 6 6 6 4 3 4 4 5 6 4 2 2 2 3 4 3 4 4 3 3
10 6 6 7 5 4 4 4 4 5 5 4 12 17 13 6 5 10 11 11 16 16 15 17 19 22 24 25 25 25 24 24 24 24 23 23 22 22 21 20 19 18 18 18 17 18 18 18 18 17 16 15 14 14 14 15 14 14 14 14 13 13 12 12 12 11 11 11 10 9 9 9 8 8 7 6 6 6 6 6 6 5 5 4 3 5 5 4 3 3 3 4 3 3 3 2 2
10 7 8 8 5 6 6 5 6 6 5 4 8 12 9 3 3 11 14 12 15 18 18 20 23 25 25 25 25 25 24 24 25 24 24 24 23 23 22 21 21 19 18 18 17 18 18 18 18 18 17 16 14 14 14 14 14 13 14 13 13 14 13 12 12 11 11 11 10 9 9 9 9 9 8 7 7 7 7 6 7 7 6 5 5 5 6 7 7 4 3 3 2 2 3 3 2
10 9 8 8 6 7 7 6 6 6 6 5 5 4 4 3 3 8 13 13 17 21 21 24 26 27 28 27 26 25 24 24 24 25 25 24 24 23 22 22 21 20 19 19 18 17 18 18 19 18 18 17 15 15 14 14 14 13 13 13 13 13 13 13 11 10 10 10 10 10 9 8 8 8 8 7 8 8 7 6 7 7 6 6 6 6 5 7 7 5 3 2 2 2 2 2 1
11 10 9 8 7 7 6 5 5 5 5 5 4 2 2 2 4 7 11 13 18 20 20 21 22 24 26 27 27 26 25 25 24 25 25 24 24 23 23 22 21 21 20 19 18 18 17 18 19 19 19 18 17 16 15 15 15 14 14 14 13 12 11 11 10 10 9 9 9 9 9 8 7 7 8 8 9 9 8 8 7 7 7 7 6 6 6 5 6 6 4 4 4 3 2 1 1
8 9 10 9 8 7 6 5 5 5 4 4 4 2 3 4 6 9 9 11 18 19 18 17 17 20 23 26 28 27 26 26 25 25 25 24 25 24 22 22 22 21 21 19 19 18 18 18 19 19 19 19 18 17 16 15 15 15 15 15 13 13 12 11 11 12 11 9 8 8 9 9 8 7 8 9 10 10 10 9 8 7 7 7 6 7 6 5 6 6 5 5 4 3 4 3 2
5 8 11 9 8 8 7 8 8 7 6 4 4 3 3 4 4 8 9 9 14 18 20 19 20 24 26 26 28 27 26 26 25 25 25 25 25 24 22 22 22 22 21 20 19 19 18 18 19 20 19 19 19 18 18 16 16 15 15 15 14 13 13 11 10 11 10 9 9 9 8 8 8 8 8 9 9 10 10 9 8 8 8 7 6 7 7 7 7 6 5 5 4 4 6 5 3
6 6 10 9 8 8 6 7 7 7 8 4 7 7 3 3 3 5 10 10 12 13 17 21 23 23 25 26 27 26 26 27 25 25 25 25 25 24 23 22 21 21 21 20 20 19 19 18 18 19 19 20 20 19 18 17 16 15 15 15 15 13 12 11 10 10 10 9 9 9 8 8 8 8 8 8 8 9 10 10 10 9 8 7 7 7 7 7 7 6 6 6 6 6 7 6 4
13 8 6 8 9 8 6 6 6 6 8 6 6 8 6 6 6 7 9 10 13 12 13 17 19 20 23 26 28 28 27 27 27 26 25 25 26 25 24 22 21 20 20 20 21 20 20 19 18 19 19 19 19 19 19 18 17 16 15 15 15 14 13 12 11 11 10 10 9 9 9 8 8 8 9 10 9 8 9 10 10 10 8 8 8 7 7 8 7 7 7 6 7 7 8 6 5
15 11 7 6 7 7 6 7 7 7 7 6 6 7 3 1 4 11 12 10 12 13 12 12 16 21 21 20 23 26 27 27 27 27 27 26 26 26 25 22 21 20 20 20 21 21 21 20 19 19 19 19 19 19 19 18 17 16 16 15 15 15 15 14 13 12 11 11 10 10 9 9 9 8 9 10 10 8 8 9 9 9 8 8 8 8 8 8 8 8 8 7 7 9 9 7 7
12 10 7 7 6 6 6 7 8 8 7 6 6 6 1 3 2 7 11 10 10 12 12 10 14 20 21 21 23 23 24 26 26 26 28 26 25 25 25 22 21 21 20 20 21 21 21 20 20 20 19 20 20 19 19 19 18 17 16 16 16 16 16 15 14 14 13 12 12 11 10 10 10 10 9 9 9 9 9 9 9 9 9 8 9 9 9 9 9 9 9 9 9 10 9 8 8
10 9 9 9 8 7 7 7 8 7 8 6 6 6 3 3 3 1 6 7 9 12 14 14 16 21 22 25 26 23 23 24 23 25 28 28 25 24 24 23 21 21 21 21 20 21 21 20 20 20 20 20 20 19 19 19 18 18 17 17 17 17 17 16 15 15 14 13 13 13 12 12 11 11 10 9 9 9 9 10 9 9 9 9 10 11 9 9 9 9 9 9 9 9 8 8 8
Wind_Direction
199 163 158 150 160 218 219 201 252 212 213 230 134 111 124 126 117 119 118 116 108 109 111 111 109 99 98 104 98 75 54 53 60 81 111 125 132 130 129 132 129 126 124 121 123 123 123 120 116 114 112 112 112 113 114 113 112 109 106 103 101 101 100 102 105 104 97 94 94 90 90 93 99 102 103 105 101 97 97 96 95 97 102 106 108 106 107 110 107 103 101 100 99 99 101 101 100
150 182 203 226 214 235 245 192 235 236 185 97 117 111 129 132 123 125 122 118 114 121 117 108 104 95 100 111 105 84 60 65 84 93 110 126 129 130 128 127 127 125 124 124 126 124 122 120 116 112 110 108 108 109 109 110 109 107 105 104 104 103 104 108 112 110 103 98 95 90 85 86 95 99 101 104 102 100 100 100 100 102 105 107 108 107 107 109 108 104 101 101 101 99 100 101 101
161 221 205 224 233 242 261 214 234 302 141 120 117 119 129 128 120 116 114 117 122 124 114 106 102 94 106 111 94 89 81 84 100 106 116 127 128 132 125 121 123 122 122 123 125 124 122 121 117 113 108 105 104 105 107 109 108 108 108 108 106 105 106 110 112 105 99 98 100 100 96 94 95 98 102 103 102 105 108 108 108 108 107 107 106 106 107 108 110 106 103 103 101 101 101 102 102
176 226 221 241 250 245 250 224 238 341 159 138 115 121 125 118 112 108 114 123 127 122 111 110 100 83 91 95 90 90 94 98 109 114 121 130 130 132 126 127 129 122 120 124 131 127 123 123 118 111 106 103 102 102 107 113 113 114 112 110 108 107 112 116 113 104 99 101 107 110 110 110 106 105 104 103 104 107 110 109 108 107 106 105 102 103 108 111 112 108 104 104 104 103 102 102 103
173 221 245 245 242 249 264 277 319 245 168 124 124 128 119 115 113 113 123 128 126 119 116 115 102 95 83 80 90 97 105 110 115 117 122 128 131 132 130 135 132 123 124 132 136 127 124 123 115 110 107 104 99 98 104 111 112 112 112 113 113 113 119 121 112 107 105 104 107 108 111 113 111 111 106 103 104 105 107 106 105 106 104 103 102 102 106 111 112 109 106 107 106 105 104 104 104
190 223 260 259 257 263 252 274 243 174 39 79 124 122 118 118 120 122 127 126 120 116 118 114 109 109 89 75 81 99 118 119 119 120 123 128 132 131 130 134 127 121 125 135 132 125 126 122 115 111 107 103 96 96 100 105 106 108 110 113 115 117 122 121 110 105 105 104 104 102 107 113 111 111 108 105 104 104 106 106 107 108 106 105 104 103 106 109 109 107 107 109 111 109 108 107 106
217 234 280 275 252 241 242 204 207 129 87 153 124 119 122 121 125 126 127 126 120 117 119 117 117 113 97 91 84 95 118 120 120 123 126 130 133 131 129 132 127 124 125 132 132 128 127 122 117 112 107 103 97 98 102 106 106 108 109 112 115 117 118 117 109 108 111 110 108 108 113 117 113 111 112 111 108 107 107 108 111 110 109 109 107 108 111 112 112 111 109 110 112 114 113 109 107
217 225 277 280 246 226 228 162 171 125 143 146 114 118 125 125 128 128 129 128 123 122 120 118 119 107 95 103 99 103 114 118 121 124 128 129 131 131 131 136 134 132 131 132 131 128 126 124 119 113 109 105 101 104 105 108 108 108 110 113 114 114 116 118 113 109 115 117 118 118 117 115 113 116 116 113 110 108 111 113 115 115 116 115 113 114 115 115 116 115 113 112 111 115 117 114 110
226 243 263 268 271 244 199 145 133 118 129 116 104 120 124 127 130 129 130 126 122 125 122 118 115 106 102 104 105 112 114 118 123 125 128 129 133 131 134 144 134 129 130 129 128 127 127 125 118 114 111 107 108 109 106 106 106 107 109 111 110 109 112 118 117 108 112 120 123 119 117 119 119 121 120 117 115 115 119 120 118 120 122 119 118 120 119 120 119 118 117 115 113 114 116 117 114
273 292 245 246 262 224 150 159 131 110 109 111 115 125 125 130 131 130 129 124 125 125 122 117 112 112 113 108 108 118 121 125 127 127 129 130 133 131 137 146 131 123 125 127 129 131 129 123 117 113 110 110 113 111 106 103 102 103 105 107 105 105 109 115 117 113 113 115 117 117 120 124 125 126 123 122 124 124 125 126 124 125 125 123 123 125 124 122 121 122 120 115 112 110 113 118 116
281 261 218 241 260 217 121 133 133 111 114 122 123 125 128 133 132 129 126 125 126 122 120 118 114 115 112 107 111 121 127 132 131 130 133 132 132 131 135 142 132 125 127 129 133 133 128 120 112 109 110 112 114 109 104 102 100 98 101 101 99 101 107 114 115 110 109 107 110 116 121 123 126 128 125 125 125 125 128 128 127 129 126 123 126 128 126 123 124 124 121 116 112 111 115 119 118
258 240 190 240 259 222 135 142 133 119 125 131 127 129 134 135 133 130 128 126 126 122 121 123 124 121 115 109 117 128 133 135 135 134 134 133 133 130 132 139 133 131 131 130 136 134 127 120 110 106 114 118 117 110 105 102 99 97 96 94 93 97 103 110 112 108 105 107 111 116 119 120 121 122 125 126 125 125 128 128 126 128 126 123 127 129 128 125 126 126 121 115 111 111 115 119 119
249 271 223 269 316 216 157 134 124 122 130 133 126 128 137 137 133 131 129 126 125 121 119 126 130 124 114 115 126 136 136 137 138 137 136 135 133 130 133 137 134 134 132 133 140 136 131 128 117 114 122 124 118 111 109 106 103 101 95 94 96 98 102 106 108 106 105 106 107 110 113 114 114 118 124 124 125 127 128 127 124 125 125 124 126 127 129 129 130 128 120 113 109 110 113 118 118
265 299 276 332 348 231 166 132 133 136 130 129 120 118 134 141 135 133 131 124 116 116 118 126 127 119 117 123 134 140 140 141 141 139 138 135 133 131 132 135 133 134 135 137 139 137 136 130 122 122 126 125 119 114 112 109 104 100 95 98 103 103 102 104 104 102 101 99 100 105 108 110 114 119 122 121 124 126 125 124 123 125 126 125 126 127 129 130 132 128 120 113 108 109 112 114 115
291 294 272 172 345 193 188 145 145 147 136 135 131 129 137 140 135 127 126 121 112 117 122 126 123 124 136 138 141 144 143 144 143 141 138 135 133 131 130 132 130 130 133 134 132 131 131 126 123 124 124 123 119 115 113 110 104 101 100 101 104 105 104 104 103 101 101 101 104 107 106 108 113 117 119 120 123 122 122 123 124 128 128 124 124 127 127 129 132 128 121 113 109 109 109 111 114
279 295 301 322 194 189 194 149 145 144 141 140 137 144 139 125 122 113 122 126 120 123 125 125 120 132 145 141 140 143 143 143 143 141 139 136 133 131 131 132 129 126 126 129 129 129 131 127 124 126 123 118 117 116 114 111 106 104 102 100 102 104 105 104 104 106 106 108 110 109 107 108 113 116 120 122 122 120 122 122 123 126 125 121 121 123 125 127 129 126 120 115 111 108 106 110 114
226 280 317 274 232 183 185 159 155 141 138 138 142 152 139 123 123 119 132 132 121 125 126 124 120 130 137 136 138 141 141 143 144 141 141 138 136 136 135 135 134 131 128 130 126 126 129 122 116 125 124 118 118 119 117 118 114 108 103 100 101 105 108 106 107 109 109 111 112 113 113 112 115 119 122 123 124 122 123 123 123 122 120 118 118 121 123 125 124 121 119 114 109 107 106 109 111
222 236 289 265 286 116 259 188 144 140 138 137 149 155 141 139 143 133 133 128 120 120 120 122 119 122 127 131 137 139 141 144 145 145 145 143 143 142 141 141 140 137 136 136 127 122 123 117 117 123 126 123 119 117 118 122 118 111 109 108 106 108 110 108 109 110 112 114 113 114 115 114 117 120 120 120 123 123 124 124 123 121 120 119 119 121 123 123 122 119 115 111 110 111 110 107 105
261 250 157 260 358 72 234 162 136 140 137 135 148 154 144 142 144 145 140 131 132 125 120 121 118 120 125 133 138 139 143 146 148 150 148 147 147 145 144 145 143 140 141 137 131 127 120 117 116 113 123 126 117 116 116 118 120 116 111 109 109 111 112 111 111 111 114 114 111 113 113 114 119 119 118 118 121 123 124 125 124 124 122 121 121 121 121 121 121 120 117 116 118 116 113 108 100
226 252 148 257 3 62 181 151 133 136 136 140 150 153 147 143 142 147 146 140 143 133 127 128 126 130 134 138 141 142 147 148 149 151 149 148 147 146 145 144 143 141 143 137 131 131 126 122 120 122 130 123 111 114 114 115 120 115 105 104 111 113 113 110 109 113 115 111 111 114 113 117 123 122 119 119 122 123 124 125 125 124 124 123 121 118 118 120 122 122 121 122 122 116 112 106 94
142 233 220 137 58 83 167 138 132 141 143 145 149 154 147 142 141 145 150 146 141 134 135 138 137 139 140 142 144 146 149 149 151 152 150 148 146 146 144 144 143 140 141 137 134 135 133 133 132 133 132 126 124 121 121 122 117 110 107 114 119 117 115 110 108 115 118 114 114 116 117 121 125 124 119 118 121 122 124 125 126 125 125 126 124 120 118 121 124 124 122 121 119 114 105 98 94
121 245 260 124 130 180 166 142 141 149 148 143 148 152 143 138 137 142 150 141 134 137 139 141 141 142 142 144 146 147 151 151 152 153 151 149 147 146 144 143 141 139 139 137 139 137 135 139 134 130 129 133 139 126 121 119 111 112 123 128 120 116 113 108 111 117 121 120 117 117 119 123 126 124 119 115 116 120 123 125 126 128 128 130 127 121 121 122 123 120 114 112 111 104 95 98 118
123 244 243 128 167 186 162 147 145 150 148 145 147 140 134 137 132 133 139 132 133 135 136 139 141 143 143 144 147 149 153 153 153 154 153 150 147 147 145 143 142 142 140 140 142 139 139 138 130 132 132 130 130 120 117 116 114 128 137 128 121 114 99 103 114 117 118 119 115 114 116 119 122 123 121 117 114 116 121 123 124 128 127 126 123 117 119 122 119 113 108 103 95 91 94 107 119
121 228 182 152 189 151 128 142 144 153 146 136 138 136 138 139 129 124 124 126 131 130 134 138 139 142 144 145 148 149 152 153 153 153 151 149 147 145 144 142 141 142 141 142 143 142 142 138 135 137 131 126 123 116 116 118 124 135 129 122 123 113 94 107 111 106 109 113 109 109 110 110 113 117 118 121 123 121 126 133 130 127 124 118 115 113 117 121 118 118 118 114 109 111 120 117 102
130 223 172 169 181 148 146 155 155 153 136 130 134 134 137 136 127 120 122 127 129 132 135 138 140 142 145 146 148 149 151 152 151 151 150 148 146 145 143 141 140 141 141 141 143 143 142 139 138 133 130 128 123 121 124 123 126 127 121 124 122 112 116 115 103 100 108 111 106 105 106 104 105 110 115 120 128 131 137 146 145 133 130 131 125 119 119 119 119 126 131 131 127 125 129 124 113
145 182 189 181 170 154 158 169 160 138 127 142 137 123 129 134 127 118 129 136 132 135 138 139 142 143 146 148 148 150 151 150 150 152 150 147 147 145 144 143 142 142 141 141 142 143 141 140 137 134 135 128 122 127 129 122 123 126 126 129 119 118 130 113 101 108 114 113 112 116 116 109 110 117 125 130 133 138 134 140 151 141 134 137 127 119 119 121 127 132 126 122 117 112 117 124 125
152 171 185 183 164 147 139 139 116 106 102 137 129 125 132 139 135 130 142 143 137 139 141 142 144 144 147 147 148 151 150 150 151 152 152 150 150 148 148 146 143 142 141 141 141 142 142 141 139 139 138 130 128 133 129 123 125 129 129 124 122 127 124 113 114 119 116 115 116 123 120 113 121 125 129 133 133 138 128 129 144 135 123 121 113 116 121 124 135 136 125 117 113 109 114 120 121
171 172 170 160 144 109 89 70 72 89 88 62 118 125 124 134 136 143 148 145 143 143 143 145 146 146 148 147 149 152 150 151 152 154 154 152 154 153 151 149 145 143 144 143 142 143 142 141 141 140 141 135 133 136 132 131 131 132 128 125 132 126 116 115 118 117 118 118 115 120 118 119 127 126 123 122 121 128 126 128 130 116 112 111 115 126 124 119 117 114 112 105 101 101 107 114 118
196 174 152 125 97 74 83 92 89 96 107 139 178 131 119 152 140 146 151 148 146 145 147 148 148 148 148 148 151 154 152 153 154 155 155 154 156 155 153 152 148 145 146 144 143 145 143 142 142 140 144 136 132 136 134 132 135 134 131 136 137 123 114 117 117 117 121 119 117 117 118 122 125 125 124 115 113 121 119 121 115 106 110 117 122 116 103 101 97 90 87 80 85 98 112 111 113
194 158 109 88 77 81 87 98 113 117 131 162 194 145 143 151 147 155 155 150 148 149 151 151 150 150 150 151 154 155 154 156 157 156 157 157 157 156 154 154 151 146 146 146 147 148 144 143 143 142 143 136 136 138 134 136 138 135 137 141 132 120 118 120 117 118 118 119 121 118 118 122 123 127 128 116 108 114 112 111 107 108 115 114 112 101 86 89 90 78 72 65 71 93 115 110 105
188 86 87 148 130 111 97 111 136 133 133 155 173 151 150 142 154 162 157 154 152 152 156 154 153 153 153 155 157 157 157 161 160 158 158 157 158 157 154 154 151 147 147 150 151 148 147 147 145 146 144 141 143 138 137 141 138 137 140 140 130 122 124 122 118 116 116 119 121 121 122 123 124 130 132 119 106 105 107 102 104 117 112 102 103 102 96 91 88 89 97 93 99 111 111 104 104
188 62 107 192 161 124 126 140 166 153 142 170 191 146 146 147 160 163 161 161 156 156 160 157 155 156 156 157 160 158 159 164 161 159 159 158 159 156 153 155 151 149 150 151 151 149 150 149 146 148 145 143 143 140 146 148 141 141 140 138 133 127 127 125 124 122 120 122 121 126 126 126 129 132 135 120 105 105 111 105 118 122 110 107 110 104 109 119 109 120 129 122 143 140 119 104 102
181 203 196 205 152 150 151 144 184 161 146 162 166 153 160 159 162 163 166 165 160 161 163 161 158 159 158 159 161 159 161 166 163 160 160 159 159 156 155 155 152 151 152 151 151 151 149 150 150 147 145 147 147 146 152 150 144 143 137 137 136 131 131 129 129 128 127 128 129 134 129 127 130 131 137 123 111 114 119 117 123 117 118 123 112 100 119 123 94 96 125 123 122 112 103 95 107
192 243 126 31 197 167 156 152 178 178 164 162 157 161 159 158 162 165 169 168 166 166 166 164 161 161 162 162 162 161 164 166 165 162 162 162 159 157 156 154 154 152 151 152 151 151 150 152 152 149 148 150 149 147 149 150 148 143 137 142 143 135 132 133 134 134 133 134 140 145 133 128 130 130 137 129 118 120 126 127 125 124 134 126 111 104 124 116 95 80 105 117 113 101 92 81 111
201 233 73 113 225 204 182 159 164 177 182 172 162 161 159 162 166 168 173 173 170 169 169 167 165 164 165 166 164 163 166 166 166 165 163 163 159 158 157 155 156 153 152 153 151 151 151 151 152 154 156 149 146 147 147 151 151 144 140 147 146 137 135 139 139 138 137 139 152 153 136 133 135 131 139 134 123 122 129 130 136 133 125 116 111 113 114 118 125 120 107 110 103 94 88 83 115
171 139 142 187 207 221 182 152 165 173 179 176 166 160 163 168 172 174 175 176 173 170 171 171 169 168 167 171 167 164 168 166 166 167 164 163 160 159 158 156 157 154 153 154 152 153 153 153 156 157 155 147 147 149 145 148 148 145 147 151 149 141 141 144 142 143 141 143 158 156 144 144 141 136 143 139 130 129 127 129 138 127 120 119 117 113 106 119 129 120 113 106 83 72 87 106 107
200 127 132 179 168 188 146 150 171 174 175 178 171 158 162 175 182 178 175 179 178 171 172 174 173 172 172 174 168 165 169 167 165 167 165 164 161 160 158 158 159 154 155 155 154 156 154 157 159 155 152 148 151 150 147 150 151 151 152 152 152 149 150 148 146 149 148 155 166 159 151 150 145 143 143 142 139 135 135 146 140 126 130 135 126 127 145 138 121 103 95 91 78 68 92 112 108
251 146 132 174 182 160 135 154 169 176 185 180 175 161 161 185 186 170 173 186 185 173 173 175 175 175 177 175 167 167 170 166 165 167 167 165 163 163 160 160 161 158 158 157 158 160 157 159 161 158 156 154 155 156 153 154 156 153 151 153 154 154 154 150 151 155 156 173 174 158 156 157 152 148 143 142 140 137 144 154 144 140 150 149 143 151 155 137 112 90 65 76 85 89 83 98 121
253 173 143 176 179 140 121 172 179 187 202 184 183 172 157 181 189 169 188 200 188 178 177 176 175 176 179 178 169 168 170 166 167 167 168 168 165 165 163 163 163 162 160 158 160 163 159 162 166 164 160 157 159 161 157 155 155 152 150 154 152 152 155 151 159 159 157 177 176 161 162 163 154 148 146 142 138 142 146 140 140 151 154 158 157 145 137 123 96 79 72 100 105 105 91 81 102
252 212 146 158 178 176 165 183 195 200 219 181 184 180 151 164 185 203 222 221 190 171 181 182 178 178 181 180 171 171 172 167 168 169 169 169 167 167 166 165 165 163 163 160 163 164 162 168 172 167 161 161 164 164 159 158 160 157 153 151 149 152 156 156 161 159 166 180 174 167 170 162 149 148 148 139 145 158 144 134 152 158 147 151 146 126 121 104 81 73 98 107 96 98 100 82 76
241 223 190 163 174 200 195 156 174 203 185 149 162 160 174 178 186 194 211 227 195 160 181 193 184 180 182 181 175 175 175 171 170 171 172 171 169 170 169 168 167 166 167 165 165 165 165 172 174 169 164 164 166 167 164 163 164 163 160 157 157 160 161 163 163 164 174 178 171 175 175 158 146 155 158 145 164 169 147 151 166 156 143 137 126 111 105 100 90 82 89 83 72 90 101 89 78
244 219 209 181 159 165 165 146 153 192 188 171 172 165 185 186 198 195 181 205 197 167 183 199 188 181 182 182 178 178 177 175 175 174 174 172 170 171 170 171 171 169 170 167 166 165 168 173 172 169 169 167 167 170 170 167 165 167 168 165 166 167 167 168 168 170 173 175 183 189 177 161 152 160 161 151 176 176 157 162 155 146 144 133 128 121 108 113 107 79 77 71 75 104 107 98 92
256 211 181 194 152 145 145 155 159 172 164 182 209 216 161 173 205 203 180 190 201 185 193 199 190 182 183 184 181 182 180 177 178 178 176 174 171 171 171 173 174 172 171 168 166 167 169 172 170 169 171 169 171 172 172 171 168 169 169 167 169 170 169 170 171 172 171 175 187 178 165 166 161 164 167 164 183 182 164 163 147 133 133 133 141 134 117 121 120 98 114 111 104 116 113 97 92
267 11 92 220 207 159 156 173 173 173 153 159 215 236 224 197 207 195 179 182 196 201 205 203 196 188 184 184 185 185 181 179 180 179 178 175 173 173 172 174 175 172 170 168 166 168 172 172 170 171 171 170 174 175 174 174 173 170 166 166 171 169 170 174 170 165 167 171 170 161 165 173 171 175 180 175 178 180 167 167 159 143 149 165 154 136 128 151 171 166 132 118 116 117 113 96 88
234 13 320 271 253 190 182 184 154 168 193 167 192 214 238 211 186 178 176 181 190 201 206 202 198 194 186 183 187 188 182 180 181 178 177 175 173 175 174 173 175 171 169 169 167 168 172 173 171 174 173 173 176 177 177 176 176 172 165 167 170 166 169 175 167 159 163 166 162 166 170 174 182 184 184 178 175 179 174 175 174 159 163 169 144 145 174 176 182 163 127 124 124 113 102 99 94
246 249 274 267 254 219 213 197 109 204 238 212 171 180 196 171 159 173 185 195 194 193 204 203 195 193 191 186 187 189 184 181 182 179 177 174 174 175 173 174 175 171 168 169 167 167 171 173 174 175 176 177 177 178 178 178 179 175 168 171 170 163 164 168 166 163 167 169 169 176 176 172 187 189 184 186 180 182 180 176 180 166 163 166 156 173 191 174 163 151 143 147 143 130 114 103 93
277 280 251 247 230 230 231 187 159 232 249 230 171 178 199 210 171 182 195 200 193 184 193 203 194 191 193 188 188 190 185 181 181 180 177 174 175 175 174 174 175 172 169 168 168 167 170 173 176 176 178 182 180 178 180 179 180 176 174 177 172 166 168 167 169 172 172 173 172 180 182 174 180 185 187 194 184 185 190 176 171 173 175 186 188 184 181 165 152 164 163 152 153 154 138 119 106
261 259 243 241 215 230 243 197 202 230 246 218 171 180 206 233 207 195 196 194 188 184 188 192 188 191 193 189 189 189 183 181 181 179 178 175 176 177 176 175 174 174 172 170 169 169 170 174 178 179 180 184 183 180 182 182 180 177 178 181 175 173 175 169 171 173 172 172 169 177 185 178 179 183 186 191 185 191 202 183 172 190 191 187 199 185 169 165 170 199 194 159 160 173 162 167 129
242 237 236 239 220 226 235 219 226 235 247 227 178 185 208 231 197 189 188 192 188 186 189 187 181 187 192 189 190 188 182 182 180 177 179 177 177 179 178 176 174 175 175 173 172 171 170 174 179 181 181 184 185 183 183 183 181 180 180 182 183 182 180 175 174 174 174 172 167 177 188 186 185 184 184 187 184 195 210 198 185 198 203 190 198 200 184 177 171 184 211 166 151 183 173 184 161
222 229 231 230 224 231 238 229 232 239 236 216 187 204 219 166 125 174 183 188 186 184 186 186 182 183 187 188 190 188 182 182 180 177 179 179 178 180 180 178 176 177 178 176 175 174 172 176 179 182 183 184 186 185 185 185 184 183 182 184 189 188 186 184 178 175 179 175 171 179 185 187 190 187 186 186 183 190 203 209 201 204 211 206 206 207 199 195 179 176 208 175 163 254 211 175 200
214 228 236 235 231 236 248 241 239 258 256 224 182 205 266 174 148 187 195 175 169 177 180 179 183 184 184 187 190 188 183 183 181 178 181 180 180 182 181 179 178 179 180 178 178 176 173 177 180 181 185 186 186 186 188 188 187 187 185 184 189 188 186 184 178 177 180 176 177 182 180 183 189 187 186 189 190 188 190 205 209 205 211 215 214 209 204 211 196 184 200 186 178 253 265 187 209
212 223 234 234 234 243 261 265 265 271 269 250 218 216 50 88 150 184 196 158 152 169 173 170 183 188 188 190 191 188 183 182 181 179 182 181 180 183 182 180 180 180 182 181 181 179 176 179 181 182 185 188 187 187 187 188 189 190 188 185 186 188 186 184 185 186 183 176 180 186 186 183 181 184 190 196 198 193 193 203 204 205 212 211 213 215 204 206 209 199 210 207 186 232 270 252 221
203 211 229 234 236 243 255 264 266 261 249 207 196 231 91 107 170 169 167 156 154 165 164 168 186 190 192 193 190 187 182 181 182 181 182 181 180 183 183 182 183 182 184 185 183 182 180 180 181 181 184 187 189 188 186 187 189 191 192 189 187 190 189 185 189 191 185 185 187 185 190 189 184 188 192 197 202 199 200 200 192 199 214 210 210 219 210 208 212 205 218 227 201 214 249 252 244
234 210 220 225 233 237 247 265 260 251 254 212 191 226 190 157 214 163 161 165 160 162 162 170 183 186 191 191 188 188 182 179 182 182 183 182 180 184 185 184 186 185 186 186 185 185 184 183 183 182 183 185 188 189 187 187 188 190 194 192 188 190 188 185 188 189 186 192 195 187 188 192 193 193 186 188 202 204 204 201 192 196 208 208 209 215 215 215 215 210 222 234 222 219 236 247 251
250 267 245 222 226 223 214 241 254 246 252 245 224 228 203 189 195 172 180 174 157 164 168 170 177 184 193 191 187 187 181 177 181 181 182 183 181 185 188 187 187 187 187 187 186 188 188 187 185 185 186 184 185 188 189 190 189 188 192 194 192 190 187 186 188 189 189 193 196 192 192 192 193 196 192 192 198 201 208 208 200 200 205 209 211 211 216 218 214 214 222 235 245 244 242 244 252
241 267 272 243 241 240 222 228 249 261 260 260 262 249 210 165 168 164 178 179 162 170 169 166 180 186 191 193 190 185 176 174 179 179 181 182 182 185 188 190 189 187 189 188 188 190 190 189 188 187 187 186 184 186 189 192 191 190 192 192 194 193 190 189 190 191 192 195 197 195 196 195 191 194 203 205 201 196 206 210 204 204 206 211 213 209 215 223 217 218 221 222 239 254 253 247 244
216 234 243 237 233 236 241 238 233 246 261 261 264 255 138 39 304 170 169 165 158 171 167 164 189 189 185 193 196 185 175 177 179 178 180 180 181 185 187 191 191 187 190 190 189 191 190 190 190 188 187 187 186 186 188 191 191 192 194 193 195 196 193 192 193 193 192 194 198 196 195 197 193 194 202 209 207 199 203 207 201 206 207 210 218 211 212 225 224 224 226 219 225 242 250 247 248
209 215 222 233 235 223 229 240 229 233 249 251 263 262 132 88 309 180 147 148 153 174 172 167 187 190 184 191 194 185 180 181 178 176 178 177 178 185 188 191 191 188 190 191 190 192 191 190 189 189 189 189 189 188 190 192 191 192 195 195 196 198 196 195 195 197 195 195 198 197 196 196 197 199 197 200 206 202 205 205 199 208 207 205 224 223 213 222 229 229 230 226 231 247 250 243 248